[[{"header":{"parameterUnit":"m.s-1","parameterCategory":1,"la1":30.2991,"la2":30.254,"lo1":-89.0895,"lo2":-89.0444,"dy":0.0017,"dx":0.0017,"nx":28,"ny":28,"refTime":"2025-01-19T03:00:00:Z","depth":0,"parameterNumber":2,"parameterNumberName":"U-component_of_WINDS"},"data":[0,0,0,0,0,0,0,0,0,0,0,0,0,0,0,0,0,0,0,0,0,0,0,0,0,0,0,0,0,0,0,0,0,0,0,0,0,0,0,0,0,0,0,0,0,0,0,0,0,0,0,0,0,0,0,0,0,0,2.3571,2.3572,0,2.3597,2.3598,2.3598,2.3574,2.3573,2.3572,2.3571,2.3598,2.3599,2.3601,0,0,0,0,0,0,0,0,0,0,0,0,0,2.3502,2.3503,2.3571,2.3572,2.3572,2.3597,2.3598,2.3598,2.3574,2.3573,2.3572,2.3571,2.3597,2.3599,2.3601,0,0,0,0,0,0,0,0,0,0,0,0,0,2.353,2.3503,2.3571,2.3563,2.3563,2.3597,2.3598,2.3598,2.3575,2.3573,2.3572,2.3571,2.3596,2.3599,2.3601,2.3645,0,0,2.3608,2.3609,0,0,0,0,0,0,0,0,2.3529,2.3533,2.3564,2.3564,2.3563,2.3581,2.3583,2.3614,2.3575,2.357,2.3571,2.357,2.3593,2.3596,2.3604,2.3646,2.3647,2.3609,2.361,2.3611,2.3612,0,0,0,0,0,0,0,2.3527,2.3531,2.3582,2.3565,2.3564,2.3559,2.3561,2.3588,2.3589,2.357,2.3569,2.3572,2.3593,2.3602,2.3604,2.3647,2.3608,2.3611,2.3612,2.3613,2.3728,2.3729,0,0,0,0,0,0,2.3525,2.353,2.3581,2.3582,2.3542,2.3561,2.3564,2.3577,2.3589,2.359,2.3574,2.3571,2.3598,2.3601,2.3605,2.3657,2.3611,2.3613,2.3615,2.3726,2.3728,2.373,0,0,0,0,0,0,2.3524,2.353,2.358,2.3556,2.3562,2.3564,2.3579,2.3578,2.3587,2.3591,2.3591,2.3582,2.3597,2.3602,2.3635,2.3658,2.3614,2.3616,2.3724,2.3727,2.3729,2.3762,0,0,0,0,0,0,2.3522,2.353,2.3546,2.3556,2.3563,2.3609,2.358,2.358,2.3591,2.3588,2.36,2.36,2.3596,2.3632,2.3638,2.366,2.3618,2.3722,2.3725,2.3728,2.3759,2.3765,2.3771,0,0,0,0,0,2.352,2.3554,2.3547,2.3553,2.3583,2.3611,2.3614,2.361,2.3593,2.361,2.3613,2.36,2.3655,2.3635,2.3642,2.3666,2.3721,2.3724,2.3728,2.3756,2.3764,2.3771,0,0,0,0,0,0,2.3545,2.3555,2.3547,2.3586,2.3598,2.3607,2.3627,2.3618,2.3634,2.3631,2.3624,2.3627,2.3663,2.3668,2.3646,2.3709,2.3685,2.369,2.3704,2.3712,2.3718,2.3715,2.362,0,0,0,0,0,2.3556,2.3577,2.3584,2.3618,2.3624,2.3625,2.3636,2.3632,2.3644,2.3649,2.3654,2.3666,2.3686,2.3699,2.3718,2.376,2.3762,2.378,2.3786,2.379,2.3795,2.3818,2.3826,2.3742,2.3742,2.3742,0,0,2.3577,2.3585,2.3599,2.3623,2.3632,2.3654,2.3629,2.3654,2.367,2.3652,2.3684,2.3689,2.3702,2.374,2.3758,2.3746,2.3819,2.3795,2.3799,2.38,2.3823,2.3831,2.3838,2.3744,2.3744,2.3743,0,0,2.3627,2.3635,2.3664,2.3674,2.3687,2.3688,2.3695,2.3706,2.3709,2.3741,2.3728,2.3748,2.3783,2.3793,2.3803,2.3859,2.3848,2.3865,2.3896,2.3919,2.3926,2.3931,2.3952,2.3959,2.387,2.387,2.387,0,2.3651,2.3685,2.368,2.3706,2.3718,2.3703,2.3733,2.3743,2.3762,2.377,2.3757,2.3801,2.3808,2.3849,2.3863,2.3872,2.388,2.3863,2.3925,2.3931,2.3936,2.3956,2.3963,2.3872,2.3872,2.3871,2.3871,0,2.3714,2.3738,2.376,2.3779,2.3793,2.3821,2.3821,2.3836,2.3831,2.3833,2.3867,2.3876,2.3897,2.3907,2.3902,2.3947,2.394,2.3926,2.3901,2.3946,2.3964,2.3972,2.3875,2.3874,2.3873,2.3873,0,0,2.3779,2.3798,2.3806,2.3815,2.383,2.3848,2.3876,2.3897,2.391,2.3924,2.3947,2.3978,2.3966,2.3977,2.3973,2.3994,2.4039,2.3978,2.3978,2.3989,2.409,2.41,2.4109,2.4032,2.4033,2.4034,2.4089,0,2.383,2.3878,2.3876,2.3921,2.3943,2.3931,2.3955,2.3967,2.3971,2.399,2.3994,2.4016,2.3998,2.4005,2.4024,2.4029,2.4059,2.4025,2.4053,2.4054,2.405,2.4118,2.4128,2.418,2.4096,2.4097,2.4098,0,2.3895,2.3912,2.396,2.3973,2.3982,2.4004,2.4024,2.4043,2.4057,2.4058,2.4071,2.4065,2.4094,2.4069,2.4109,2.4086,2.4098,2.4102,2.4104,2.4106,2.4078,2.4122,2.4196,2.4204,2.4109,2.4108,2.4108,0,2.3938,2.3973,2.4007,2.4015,2.4031,2.4047,2.4054,2.4067,2.408,2.4098,2.4106,2.4127,2.4138,2.4154,2.4154,2.4136,2.4195,2.417,2.4196,2.4196,2.4208,2.4207,2.4285,2.4217,2.4217,2.4216,2.4216,0,2.3994,2.4024,2.4026,2.4047,2.408,2.4077,2.411,2.4116,2.4128,2.415,2.4141,2.4161,2.416,2.4181,2.4181,2.4214,2.4219,2.4221,2.4221,2.4222,2.4221,2.4229,2.4225,2.4219,2.4218,2.4218,2.4217,0,2.4047,2.405,2.4086,2.4099,2.4103,2.4127,2.4138,2.4158,2.4161,2.4189,2.4195,2.42,2.4225,2.4226,2.4254,2.4255,2.4295,2.4291,2.429,2.4289,2.4316,2.4313,2.44,2.4412,2.4336,2.4337,2.4338,0,2.4083,2.4105,2.4121,2.4136,2.4144,2.4167,2.4181,2.418,2.4195,2.4214,2.4231,2.4255,2.4274,2.4314,2.432,2.4342,2.4338,2.4367,2.4341,2.4342,2.4339,2.4337,2.434,2.4372,2.4373,2.4374,2.4374,0,2.4146,2.4146,2.4167,2.4188,2.4205,2.4222,2.4237,2.4249,2.4251,2.4268,2.4293,2.4308,2.4338,2.4361,2.4383,2.4391,2.4383,2.4383,2.439,2.4391,2.4389,2.4391,2.4304,2.438,2.438,2.4379,2.4379,2.4379,2.4191,2.4211,2.4226,2.4249,2.4261,2.4276,2.4296,2.4302,2.4323,2.4347,2.4346,2.4374,2.4389,2.4417,2.4427,2.445,2.444,2.445,2.4453,2.4455,2.4458,2.4387,2.4454,2.4454,2.4453,2.4453,2.4453,0,2.4253,2.4263,2.4284,2.4307,2.4326,2.4317,2.4335,2.4351,2.4376,2.4391,2.441,2.444,2.4463,2.4473,2.4496,2.4512,2.4509,2.4518,2.4517,2.4519,2.4466,2.4457,2.452,2.452,2.452,2.452,2.452,2.452,2.4288,2.4321,2.4324,2.4364,2.4373,2.4401,2.4412,2.4426,2.4438,2.4472,2.4492,2.4498,2.4511,2.4535,2.4557,2.4559,2.4568,2.4579,2.4579,2.4529,2.4522,2.4516,2.4508,2.4581,2.4581,2.4631,2.4631,2.4631]},{"header":{"parameterUnit":"m.s-1","parameterCategory":1,"la1":30.2991,"la2":30.254,"lo1":-89.0895,"lo2":-89.0444,"dy":0.0017,"dx":0.0017,"nx":28,"ny":28,"refTime":"2025-01-19T03:00:00:Z","depth":0,"parameterNumber":3,"parameterNumberName":"V-component_of_WINDS"},"data":[0,0,0,0,0,0,0,0,0,0,0,0,0,0,0,0,0,0,0,0,0,0,0,0,0,0,0,0,0,0,0,0,0,0,0,0,0,0,0,0,0,0,0,0,0,0,0,0,0,0,0,0,0,0,0,0,0,0,-7.923,-7.9232,0,-7.942,-7.9422,-7.9425,-7.9365,-7.9361,-7.9357,-7.9353,-7.9544,-7.9553,-7.9562,0,0,0,0,0,0,0,0,0,0,0,0,0,-7.8811,-7.8819,-7.923,-7.9232,-7.9234,-7.942,-7.9423,-7.9425,-7.9366,-7.9361,-7.9356,-7.9351,-7.9541,-7.9552,-7.9562,0,0,0,0,0,0,0,0,0,0,0,0,0,-7.8996,-7.8821,-7.9229,-7.9227,-7.9229,-7.9419,-7.9423,-7.9426,-7.9367,-7.9361,-7.9355,-7.9349,-7.9538,-7.9551,-7.9564,-7.9766,0,0,-7.9604,-7.961,0,0,0,0,0,0,0,0,-7.8986,-7.9011,-7.9225,-7.9228,-7.923,-7.9363,-7.9345,-7.954,-7.9368,-7.9314,-7.9353,-7.9346,-7.9488,-7.9505,-7.9554,-7.9775,-7.9784,-7.9606,-7.9614,-7.9619,-7.9623,0,0,0,0,0,0,0,-7.8973,-7.9003,-7.9305,-7.9228,-7.9231,-7.9216,-7.9235,-7.9382,-7.9433,-7.9319,-7.9315,-7.9338,-7.9489,-7.9542,-7.9558,-7.9786,-7.9605,-7.9617,-7.9625,-7.963,-8.0183,-8.019,0,0,0,0,0,0,-7.8959,-7.8993,-7.9299,-7.9311,-7.9091,-7.9228,-7.925,-7.9326,-7.9431,-7.9441,-7.9343,-7.9335,-7.9522,-7.9543,-7.9565,-7.9809,-7.9619,-7.9632,-7.9639,-8.0177,-8.0185,-8.0192,0,0,0,0,0,0,-7.895,-7.8987,-7.9291,-7.9151,-7.9188,-7.9242,-7.9328,-7.9333,-7.9386,-7.945,-7.9458,-7.9388,-7.9518,-7.9546,-7.9717,-7.9815,-7.9638,-7.965,-8.0169,-8.0179,-8.0189,-8.03,0,0,0,0,0,0,-7.8938,-7.8984,-7.9062,-7.9153,-7.9196,-7.9442,-7.9334,-7.9341,-7.941,-7.94,-7.9494,-7.9504,-7.9515,-7.9698,-7.973,-7.983,-7.966,-8.016,-8.0173,-8.0185,-8.0288,-8.0313,-8.0334,0,0,0,0,0,-7.8924,-7.9085,-7.9067,-7.9104,-7.9295,-7.9448,-7.9472,-7.9483,-7.9418,-7.9497,-7.9538,-7.9501,-7.9799,-7.9716,-7.9752,-7.9857,-8.0154,-8.017,-8.0184,-8.0277,-8.0308,-8.0333,0,0,0,0,0,0,-7.9003,-7.9097,-7.9078,-7.9273,-7.9353,-7.9437,-7.9537,-7.9515,-7.9614,-7.9601,-7.9609,-7.9631,-7.9806,-7.9848,-7.9754,-8.0059,-7.9967,-7.999,-8.0025,-8.0054,-8.0077,-8.0063,-7.9671,0,0,0,0,0,-7.9044,-7.9161,-7.9236,-7.9401,-7.9443,-7.9483,-7.955,-7.9552,-7.9634,-7.9667,-7.972,-7.98,-7.9912,-7.9985,-8.0092,-8.0293,-8.0313,-8.0384,-8.0407,-8.0425,-8.0445,-8.0555,-8.0587,-8.0242,-8.0242,-8.0242,0,0,-7.9128,-7.9194,-7.9267,-7.9419,-7.9481,-7.9601,-7.9512,-7.9642,-7.9731,-7.9686,-7.9852,-7.9894,-7.9983,-8.0171,-8.0256,-8.0212,-8.0545,-8.0445,-8.0459,-8.0469,-8.0574,-8.0607,-8.0636,-8.0252,-8.025,-8.0249,0,0,-7.9344,-7.9406,-7.955,-7.9615,-7.971,-7.9737,-7.9771,-7.986,-7.9886,-8.0053,-8.0022,-8.0126,-8.0319,-8.0384,-8.0443,-8.0684,-8.0654,-8.0718,-8.0839,-8.0946,-8.0973,-8.0997,-8.1083,-8.1114,-8.0738,-8.0738,-8.0738,0,-7.9436,-7.9617,-7.9627,-7.9762,-7.9829,-7.9795,-7.9942,-8.0003,-8.0128,-8.0175,-8.0124,-8.0365,-8.0423,-8.0626,-8.0685,-8.0733,-8.0773,-8.0708,-8.0969,-8.0993,-8.1016,-8.1098,-8.113,-8.0745,-8.0745,-8.0744,-8.0743,0,-7.9727,-7.9853,-7.9958,-8.0081,-8.0161,-8.03,-8.033,-8.0409,-8.0404,-8.0436,-8.0605,-8.0674,-8.0794,-8.0842,-8.0837,-8.1044,-8.1014,-8.0966,-8.0873,-8.1056,-8.1133,-8.1165,-8.0756,-8.0753,-8.0751,-8.0749,0,0,-7.9997,-8.0125,-8.0164,-8.022,-8.0323,-8.042,-8.0557,-8.0676,-8.0744,-8.0831,-8.0946,-8.111,-8.1067,-8.1133,-8.1136,-8.123,-8.1417,-8.1171,-8.1173,-8.1214,-8.1649,-8.1685,-8.1721,-8.1398,-8.1404,-8.1409,-8.1642,0,-8.0222,-8.0465,-8.0479,-8.07,-8.0816,-8.0786,-8.0906,-8.0982,-8.1015,-8.1117,-8.1152,-8.1269,-8.1202,-8.1243,-8.1334,-8.1375,-8.1505,-8.1358,-8.1505,-8.151,-8.1483,-8.1762,-8.18,-8.2016,-8.1672,-8.1677,-8.1681,0,-8.0516,-8.0614,-8.0847,-8.0935,-8.0984,-8.1092,-8.1202,-8.1301,-8.1386,-8.1403,-8.1478,-8.1468,-8.1607,-8.1511,-8.1703,-8.1603,-8.1664,-8.1693,-8.1702,-8.1716,-8.1606,-8.1783,-8.2085,-8.2118,-8.1729,-8.1725,-8.1721,0,-8.069,-8.0881,-8.1045,-8.1093,-8.12,-8.1276,-8.1323,-8.1403,-8.1474,-8.1569,-8.1615,-8.1725,-8.1786,-8.1871,-8.189,-8.1818,-8.2083,-8.1987,-8.21,-8.21,-8.2158,-8.2154,-8.2474,-8.2197,-8.2196,-8.2195,-8.2195,0,-8.094,-8.1083,-8.1125,-8.1226,-8.1386,-8.1399,-8.1557,-8.1599,-8.167,-8.1778,-8.1758,-8.1859,-8.1878,-8.1983,-8.1999,-8.2156,-8.2184,-8.2201,-8.2203,-8.2203,-8.2201,-8.2243,-8.2228,-8.2204,-8.2202,-8.2201,-8.2199,0,-8.1161,-8.1195,-8.1372,-8.1459,-8.1484,-8.1598,-8.1671,-8.1768,-8.1798,-8.1935,-8.1968,-8.2016,-8.2139,-8.2166,-8.2312,-8.2322,-8.2509,-8.2496,-8.2481,-8.248,-8.2592,-8.2581,-8.295,-8.2999,-8.2689,-8.2692,-8.2695,0,-8.1318,-8.1429,-8.1527,-8.1599,-8.1651,-8.1766,-8.1839,-8.1856,-8.1932,-8.2038,-8.2121,-8.2242,-8.234,-8.2538,-8.2584,-8.2696,-8.2686,-8.2807,-8.2702,-8.2699,-8.2688,-8.2681,-8.2692,-8.2827,-8.2831,-8.2833,-8.2836,0,-8.1594,-8.1605,-8.1711,-8.1824,-8.1912,-8.2001,-8.2085,-8.2145,-8.2173,-8.226,-8.2386,-8.2462,-8.2612,-8.2732,-8.2844,-8.2891,-8.2869,-8.2869,-8.2901,-8.2901,-8.2888,-8.2897,-8.2536,-8.286,-8.2857,-8.2856,-8.2854,-8.2853,-8.1788,-8.1885,-8.197,-8.2089,-8.2155,-8.2235,-8.233,-8.2373,-8.248,-8.2604,-8.2607,-8.2745,-8.2827,-8.2975,-8.3029,-8.3136,-8.3098,-8.3145,-8.3156,-8.3168,-8.3178,-8.2871,-8.3156,-8.3156,-8.3155,-8.3154,-8.3154,0,-8.2062,-8.2116,-8.2225,-8.2346,-8.2439,-8.2411,-8.2504,-8.2584,-8.2706,-8.2785,-8.2882,-8.3027,-8.3144,-8.3201,-8.3316,-8.3391,-8.3383,-8.342,-8.3415,-8.3426,-8.3205,-8.3166,-8.3424,-8.3424,-8.3424,-8.3424,-8.3424,-8.3424,-8.2216,-8.2379,-8.24,-8.2595,-8.2647,-8.2783,-8.2838,-8.2912,-8.2975,-8.3139,-8.3237,-8.3273,-8.3343,-8.3463,-8.3569,-8.3582,-8.3626,-8.3668,-8.3677,-8.3469,-8.3442,-8.3415,-8.3379,-8.3677,-8.3678,-8.3889,-8.389,-8.3892]}]]